| time (UTC) | temp F | wind direction | speed MPH | gust MPH | rain 1hr in | rain 24hr in | rain mn in | humidity % | barometer mb |
| 20260505192820 | 64 | 332 | 0.0 | 0.0 | 0.00 | 0.00 | 0.00 | 82 | 1034.8 |
| 20260505191821 | 64 | 319 | 0.0 | 0.0 | 0.00 | 0.00 | 0.00 | 82 | 1034.9 |
| 20260505190820 | 64 | 319 | 0.0 | 0.0 | 0.00 | 0.00 | 0.00 | 81 | 1034.9 |
| 20260505185821 | 64 | 319 | 0.0 | 0.0 | 0.00 | 0.00 | 0.00 | 81 | 1034.9 |
| 20260505184822 | 64 | 324 | 0.0 | 0.0 | 0.00 | 0.00 | 0.00 | 81 | 1034.9 |
| 20260505183818 | 63 | 318 | 0.0 | 0.0 | 0.00 | 0.00 | 0.00 | 81 | 1035.0 |
| 20260505181919 | 63 | 316 | 0.0 | 0.0 | 0.00 | 0.00 | 0.00 | 76 | 1035.0 |
| 20260505174921 | 61 | 322 | 0.0 | 0.0 | 0.00 | 0.00 | 0.00 | 83 | 1034.7 |
| 20260505172919 | 61 | 323 | 0.0 | 0.0 | 0.00 | 0.00 | 0.00 | 82 | 1034.5 |
| 20260505171919 | 62 | 320 | 0.0 | 0.0 | 0.00 | 0.00 | 0.00 | 82 | 1034.3 |
| 20260505170920 | 62 | 318 | 0.0 | 0.0 | 0.00 | 0.00 | 0.00 | 85 | 1034.1 |
| 20260505165018 | 62 | 322 | 0.0 | 0.0 | 0.00 | 0.00 | 0.00 | 87 | 1034.2 |
| 20260505164020 | 61 | 327 | 0.0 | 0.0 | 0.00 | 0.00 | 0.00 | 83 | 1034.0 |
| 20260505163020 | 60 | 326 | 0.0 | 0.0 | 0.00 | 0.00 | 0.00 | 83 | 1033.9 |
| 20260505162021 | 60 | 327 | 0.0 | 0.0 | 0.00 | 0.00 | 0.00 | 86 | 1033.8 |
| 20260505152020 | 58 | 319 | 0.0 | 0.0 | 0.00 | 0.00 | 0.00 | 91 | 1033.4 |
| 20260505151022 | 58 | 326 | 0.0 | 0.0 | 0.00 | 0.00 | 0.00 | 92 | 1033.4 |
| 20260505124120 | 56 | 338 | 0.0 | 0.0 | 0.00 | 0.00 | 0.00 | 95 | 1032.2 |
| 20260505123122 | 56 | 315 | 0.0 | 0.0 | 0.00 | 0.00 | 0.00 | 94 | 1032.4 |
| 20260505122121 | 56 | 322 | 0.0 | 0.0 | 0.00 | 0.00 | 0.00 | 94 | 1032.2 |
| 20260505121219 | 55 | 335 | 0.0 | 0.0 | 0.00 | 0.00 | 0.00 | 94 | 1032.2 |
| 20260505121120 | 55 | 337 | 0.0 | 0.0 | 0.00 | 0.00 | 0.00 | 94 | 1032.2 |
| 20260505120121 | 55 | 346 | 0.0 | 0.0 | 0.00 | 0.00 | 0.00 | 94 | 1032.2 |
| 20260505115120 | 55 | 332 | 0.0 | 0.0 | 0.00 | 0.00 | 0.00 | 94 | 1032.3 |
| 20260505114122 | 56 | 331 | 0.0 | 0.0 | 0.00 | 0.00 | 0.00 | 94 | 1032.3 |
| 20260505112121 | 56 | 360 | 0.0 | 0.0 | 0.00 | 0.00 | 0.00 | 95 | 1032.1 |
| 20260505110120 | 56 | 360 | 0.0 | 0.0 | 0.00 | 0.00 | 0.00 | 92 | 1032.2 |
| 20260505102220 | 57 | 322 | 0.0 | 0.0 | 0.00 | 0.00 | 0.00 | 91 | 1032.4 |
| 20260505100319 | 57 | 315 | 0.0 | 0.0 | 0.00 | 0.00 | 0.00 | 89 | 1032.5 |
| 20260505095320 | 57 | 318 | 0.0 | 0.0 | 0.00 | 0.00 | 0.00 | 89 | 1032.6 |
| 20260505094321 | 57 | 320 | 0.0 | 0.0 | 0.00 | 0.00 | 0.00 | 88 | 1032.6 |
| 20260505093320 | 57 | 315 | 0.0 | 0.0 | 0.00 | 0.00 | 0.00 | 87 | 1032.6 |
| 20260505092321 | 57 | 315 | 0.0 | 0.0 | 0.00 | 0.00 | 0.00 | 86 | 1032.8 |
| 20260505091420 | 57 | 330 | 0.0 | 0.0 | 0.00 | 0.00 | 0.00 | 84 | 1032.6 |
| 20260505085520 | 58 | 325 | 0.0 | 0.0 | 0.00 | 0.00 | 0.00 | 82 | 1032.9 |
| 20260505084619 | 59 | 316 | 0.0 | 0.0 | 0.00 | 0.00 | 0.00 | 83 | 1032.8 |
| 20260505083621 | 58 | 318 | 0.0 | 0.0 | 0.00 | 0.00 | 0.00 | 83 | 1032.9 |
| 20260505082620 | 58 | 316 | 0.0 | 0.0 | 0.00 | 0.00 | 0.00 | 82 | 1033.0 |
| 20260505080620 | 59 | 316 | 0.0 | 0.0 | 0.00 | 0.00 | 0.00 | 79 | 1033.2 |
| 20260505075620 | 59 | 338 | 0.0 | 0.0 | 0.00 | 0.00 | 0.00 | 79 | 1033.4 |
| 20260505074619 | 59 | 324 | 0.0 | 0.0 | 0.00 | 0.00 | 0.00 | 79 | 1033.3 |
| 20260505072721 | 60 | 316 | 0.0 | 0.0 | 0.00 | 0.00 | 0.00 | 81 | 1033.4 |
| 20260505065825 | 60 | 317 | 0.0 | 0.0 | 0.00 | 0.00 | 0.00 | 83 | 1033.5 |
| 20260505064822 | 60 | 318 | 0.0 | 0.0 | 0.00 | 0.00 | 0.00 | 82 | 1033.6 |
| 20260505063822 | 60 | 319 | 0.0 | 0.0 | 0.00 | 0.00 | 0.00 | 82 | 1033.6 |
| 20260505062823 | 60 | 319 | 0.0 | 0.0 | 0.00 | 0.00 | 0.00 | 81 | 1033.6 |
| 20260505061824 | 60 | 324 | 0.0 | 0.0 | 0.00 | 0.00 | 0.00 | 83 | 1033.7 |
| 20260505060922 | 59 | 316 | 0.0 | 0.0 | 0.00 | 0.00 | 0.00 | 82 | 1033.8 |
| 20260505055923 | 59 | 326 | 0.0 | 0.0 | 0.00 | 0.00 | 0.00 | 83 | 1033.9 |
| 20260505055022 | 59 | 321 | 0.0 | 0.0 | 0.00 | 0.00 | 0.00 | 83 | 1033.9 |
| 20260505054021 | 59 | 327 | 0.0 | 0.0 | 0.00 | 0.00 | 0.00 | 82 | 1033.9 |
| 20260505053024 | 60 | 316 | 0.0 | 0.0 | 0.00 | 0.00 | 0.00 | 81 | 1034.1 |
| 20260505052038 | 60 | 322 | 0.0 | 0.0 | 0.00 | 0.00 | 0.00 | 81 | 1034.2 |
| 20260505051122 | 60 | 326 | 0.0 | 0.0 | 0.00 | 0.00 | 0.00 | 82 | 1034.4 |
| 20260505035324 | 62 | 319 | 0.0 | 0.0 | 0.00 | 0.00 | 0.00 | 72 | 1034.0 |
| 20260505034323 | 62 | 326 | 0.0 | 0.0 | 0.00 | 0.00 | 0.00 | 70 | 1034.0 |
| 20260505033322 | 62 | 318 | 0.0 | 0.0 | 0.00 | 0.00 | 0.00 | 70 | 1033.8 |
| 20260505032322 | 61 | 317 | 0.0 | 0.0 | 0.00 | 0.00 | 0.00 | 72 | 1034.0 |
| 20260505030422 | 61 | 319 | 0.0 | 0.0 | 0.00 | 0.00 | 0.00 | 73 | 1033.7 |
| 20260505025422 | 61 | 319 | 0.0 | 0.0 | 0.00 | 0.00 | 0.00 | 73 | 1033.7 |
| 20260505024423 | 61 | 317 | 0.0 | 0.0 | 0.00 | 0.00 | 0.00 | 73 | 1033.5 |
| 20260505023522 | 62 | 316 | 0.0 | 0.0 | 0.00 | 0.00 | 0.00 | 74 | 1033.6 |
| 20260505022524 | 62 | 318 | 0.0 | 0.0 | 0.00 | 0.00 | 0.00 | 72 | 1033.7 |
| 20260505021621 | 62 | 319 | 0.0 | 0.0 | 0.00 | 0.00 | 0.00 | 73 | 1033.7 |
| 20260505015722 | 62 | 323 | 0.0 | 0.0 | 0.00 | 0.00 | 0.00 | 72 | 1033.6 |
| 20260505014721 | 63 | 326 | 0.0 | 0.0 | 0.00 | 0.00 | 0.00 | 71 | 1033.6 |
| 20260505013724 | 63 | 319 | 0.0 | 0.0 | 0.00 | 0.00 | 0.00 | 72 | 1033.8 |
| 20260505012723 | 63 | 325 | 0.0 | 0.0 | 0.00 | 0.00 | 0.00 | 72 | 1033.9 |
| 20260505011821 | 63 | 317 | 0.0 | 0.0 | 0.00 | 0.00 | 0.00 | 72 | 1033.7 |
| 20260505010823 | 64 | 318 | 0.0 | 0.0 | 0.00 | 0.00 | 0.00 | 70 | 1033.8 |
| 20260505005822 | 65 | 317 | 0.0 | 0.0 | 0.00 | 0.00 | 0.00 | 69 | 1034.0 |
| 20260505004822 | 66 | 322 | 0.0 | 0.0 | 0.00 | 0.00 | 0.00 | 67 | 1033.9 |
| 20260505003824 | 67 | 324 | 0.0 | 0.0 | 0.00 | 0.00 | 0.00 | 65 | 1033.9 |
| 20260505002825 | 66 | 326 | 0.0 | 0.0 | 0.00 | 0.00 | 0.00 | 65 | 1034.0 |
| 20260505001822 | 67 | 319 | 0.0 | 0.0 | 0.00 | 0.00 | 0.00 | 65 | 1033.8 |
| 20260505000822 | 67 | 335 | 0.0 | 0.0 | 0.00 | 0.00 | 0.00 | 65 | 1033.9 |
| 20260504235823 | 67 | 319 | 0.0 | 0.0 | 0.00 | 0.00 | 0.00 | 63 | 1034.0 |
| 20260504235723 | 67 | 319 | 0.0 | 0.0 | 0.00 | 0.00 | 0.00 | 64 | 1034.0 |
| 20260504234739 | 67 | 319 | 0.0 | 0.0 | 0.00 | 0.00 | 0.00 | 64 | 1034.0 |
| 20260504233823 | 66 | 318 | 0.0 | 0.0 | 0.00 | 0.00 | 0.00 | 64 | 1034.0 |
| 20260504232922 | 66 | 320 | 0.0 | 0.0 | 0.00 | 0.00 | 0.00 | 66 | 1034.0 |
| 20260504231923 | 66 | 320 | 0.0 | 0.0 | 0.00 | 0.00 | 0.00 | 65 | 1034.1 |
| 20260504230924 | 67 | 319 | 0.0 | 0.0 | 0.00 | 0.00 | 0.00 | 62 | 1034.0 |
| 20260504225922 | 68 | 319 | 0.0 | 0.0 | 0.00 | 0.00 | 0.00 | 63 | 1033.9 |
| 20260504224922 | 67 | 325 | 0.0 | 0.0 | 0.00 | 0.00 | 0.00 | 63 | 1033.8 |
| 20260504223924 | 67 | 318 | 0.0 | 0.0 | 0.00 | 0.00 | 0.00 | 63 | 1034.0 |
| 20260504222025 | 67 | 320 | 0.0 | 0.0 | 0.00 | 0.00 | 0.00 | 65 | 1033.9 |
| 20260504221121 | 67 | 322 | 0.0 | 0.0 | 0.00 | 0.00 | 0.00 | 64 | 1034.2 |
| 20260504220124 | 67 | 322 | 0.0 | 0.0 | 0.00 | 0.00 | 0.00 | 66 | 1034.4 |
| 20260504215221 | 67 | 321 | 0.0 | 0.0 | 0.00 | 0.00 | 0.00 | 67 | 1034.6 |
| 20260504214321 | 67 | 319 | 0.0 | 0.0 | 0.00 | 0.00 | 0.00 | 65 | 1034.5 |
| 20260504213322 | 68 | 319 | 0.0 | 0.0 | 0.00 | 0.00 | 0.00 | 65 | 1034.7 |
| 20260504212323 | 67 | 316 | 0.0 | 0.0 | 0.00 | 0.00 | 0.00 | 66 | 1034.8 |
| 20260504210323 | 67 | 325 | 0.0 | 0.0 | 0.00 | 0.00 | 0.00 | 64 | 1034.9 |
| 20260504205322 | 67 | 323 | 0.0 | 0.0 | 0.00 | 0.00 | 0.00 | 64 | 1035.1 |
| 20260504204323 | 68 | 326 | 0.0 | 0.0 | 0.00 | 0.00 | 0.00 | 64 | 1034.9 |
| 20260504203422 | 68 | 327 | 0.0 | 0.0 | 0.00 | 0.00 | 0.00 | 63 | 1034.9 |
| 20260504202423 | 67 | 328 | 0.0 | 0.0 | 0.00 | 0.00 | 0.00 | 66 | 1035.0 |
| 20260504201423 | 66 | 322 | 0.0 | 0.0 | 0.00 | 0.00 | 0.00 | 67 | 1035.0 |
| 20260504200422 | 66 | 326 | 0.0 | 0.0 | 0.00 | 0.00 | 0.00 | 66 | 1035.1 |
| 20260504195422 | 66 | 319 | 0.0 | 0.0 | 0.00 | 0.00 | 0.00 | 67 | 1034.9 |
| 20260504194424 | 66 | 327 | 0.0 | 0.0 | 0.00 | 0.00 | 0.00 | 68 | 1035.0 |
| 20260504193424 | 65 | 317 | 0.0 | 0.0 | 0.00 | 0.00 | 0.00 | 69 | 1035.2 |